Glendale Luke AFB, AZ

6:44 AM MST on December 14, 2019 (GMT -0700)
Luke Air Force Base

Weather History for KLUF - August, 2019

Change the Weather History Date:

Saturday, August 17, 2019

  Actual Average Record
Temperature  
Mean Temperature 94 °F -  
Max Temperature 106 °F 104 °F 113 °F (1992)
Min Temperature 83 °F 72 °F 59 °F (1918)
Cooling Degree Days 30    
Growing Degree Days 44 (Base 50)    
Moisture  
Dew Point 52 °F    
Average Humidity 25    
Maximum Humidity 43    
Minimum Humidity 13    
Precipitation  
Precipitation 0.00 in - - ()
Sea Level Pressure  
Sea Level Pressure 29.71 in    
Wind  
Wind Speed 9 mph (SW)    
Max Wind Speed 17 mph    
Max Gust Speed -    
Visibility 10 miles    
Events      
Averages and records for this station are not official NWS values.
T = Trace of Precipitation, MM = Missing Value Source: NWS Daily Summary

Daily Weather History Graph

Daily Weather History Graph

Search for Another Location

Airport or City:

Astronomy

Aug. 17, 2019 Rise Set
Actual Time 5:53 AM MST 7:13 PM MST
Civil Twilight 5:26 AM MST 7:39 PM MST
Nautical Twilight 4:55 AM MST 8:10 PM MST
Astronomical Twilight 4:23 AM MST 8:43 PM MST
Moon 8:48 PM MST (8/17) 7:41 AM MST (8/17)
Length of Visible Light 14h 12m
Length of Day
13h 20m
Waning Gibbous, 95% of the Moon is Illuminated
Aug 17
Waning Gibbous
Aug 23
Last Quarter
Aug 30
New
Sep 5
First Quarter
Sep 13
Full

Hourly Weather History & Observations

Time (MST) Temp. Heat Index Dew Point Humidity Pressure Visibility Wind Dir Wind Speed Gust Speed Precip Events Conditions
12:58 AM 91.2 °F 91.1 °F 60.4 °F 36% 29.71 in 10.0 mi SW 13.8 mph - N/A   Clear
1:58 AM 90.3 °F 89.9 °F 59.7 °F 36% 29.71 in 10.0 mi SW 17.3 mph - N/A   Clear
2:58 AM 90.0 °F 89.1 °F 58.6 °F 35% 29.70 in 10.0 mi SW 16.1 mph - N/A   Clear
3:58 AM 87.8 °F 87.1 °F 59.0 °F 38% 29.72 in 10.0 mi East 4.6 mph - N/A   Clear
4:58 AM 88.5 °F 87.1 °F 56.5 °F 34% 29.74 in 10.0 mi Calm Calm - N/A   Clear
5:58 AM 83.7 °F 83.4 °F 58.8 °F 43% 29.75 in 10.0 mi NNE 3.5 mph - N/A   Clear
6:58 AM 86.4 °F 85.9 °F 59.2 °F 40% 29.78 in 10.0 mi North 5.8 mph - N/A   Clear
7:58 AM 90.5 °F 90.1 °F 59.9 °F 36% 29.78 in 10.0 mi NNE 5.8 mph - N/A   Clear
8:58 AM 93.7 °F 92.6 °F 57.6 °F 30% 29.79 in 10.0 mi NE 4.6 mph - N/A   Clear
9:58 AM 95.2 °F 94.3 °F 57.9 °F 29% 29.78 in 10.0 mi SSW 3.5 mph - N/A   Clear
10:58 AM 98.1 °F 97.2 °F 57.2 °F 26% 29.78 in 10.0 mi East 4.6 mph - N/A   Clear
11:58 AM 100.0 °F 98.8 °F 55.6 °F 23% 29.76 in 10.0 mi SE 9.2 mph - N/A   Partly Cloudy
12:58 PM 100.9 °F 99.6 °F 55.0 °F 22% 29.73 in 10.0 mi NNE 3.5 mph - N/A   Clear
1:58 PM 103.5 °F 101.6 °F 53.1 °F 19% 29.70 in 10.0 mi SSE 6.9 mph - N/A   Clear
2:58 PM 104.9 °F - 51.3 °F 17% 29.68 in 10.0 mi SW 8.1 mph - N/A   Clear
3:58 PM 106.0 °F - 46.9 °F 14% 29.65 in 10.0 mi West 5.8 mph - N/A   Clear
4:58 PM 106.2 °F - 45.0 °F 13% 29.63 in 10.0 mi West 10.4 mph - N/A   Clear
5:58 PM 105.6 °F - 44.6 °F 13% 29.62 in 10.0 mi West 10.4 mph - N/A   Clear
6:58 PM 104.2 °F - 43.5 °F 13% 29.62 in 10.0 mi SSW 8.1 mph - N/A   Clear
7:58 PM 99.9 °F - 43.9 °F 15% 29.63 in 10.0 mi West 5.8 mph - N/A   Clear
8:58 PM 96.3 °F - 42.8 °F 16% 29.66 in 10.0 mi WSW 8.1 mph - N/A   Clear
9:58 PM 94.8 °F - 44.6 °F 18% 29.68 in 10.0 mi SW 10.4 mph - N/A   Clear
10:58 PM 92.3 °F - 45.3 °F 20% 29.70 in 10.0 mi WSW 10.4 mph - N/A   Clear
11:58 PM 91.4 °F - 41.9 °F 18% 29.70 in 10.0 mi SW 12.7 mph - N/A   Clear